JFK1 KOWB-KLOU

Flight info

Callsign JFK1
Flight time 0h 24m
Altitude VFR/075
Route
Aircraft B350/L-VGD/C

Departure

Time 2026-05-07 00:26
Airport Owensboro Daviess County Airport (KOWB)

Arrival

Time 2026-05-07 00:50
Airport Bowman Field (KLOU)
Time Latitude Longitude Altitude Speed Heading
2026-05-07 00:20 37.73708 -87.16403 402 ft 0 kts 90°
2026-05-07 00:21 37.73724 -87.16412 402 ft 0 kts 328°
2026-05-07 00:22 37.73735 -87.16417 402 ft 8 kts 342°
2026-05-07 00:22 37.73747 -87.16421 402 ft 0 kts 343°
2026-05-07 00:23 37.73753 -87.16425 402 ft 6 kts 333°
2026-05-07 00:23 37.73763 -87.16534 402 ft 18 kts 182°
2026-05-07 00:24 37.73576 -87.16534 402 ft 33 kts 179°
2026-05-07 00:24 37.73311 -87.16522 402 ft 39 kts 178°
2026-05-07 00:24 37.73013 -87.16505 401 ft 34 kts 176°
2026-05-07 00:24 37.72823 -87.16497 401 ft 23 kts 173°
2026-05-07 00:25 37.72724 -87.16518 401 ft 10 kts 236°
2026-05-07 00:25 37.72728 -87.16644 401 ft 16 kts 319°
2026-05-07 00:25 37.72941 -87.16690 402 ft 71 kts 356°
2026-05-07 00:25 37.73815 -87.16723 545 ft 162 kts
2026-05-07 00:26 37.75112 -87.16788 1184 ft 207 kts 354°
2026-05-07 00:26 37.76512 -87.16657 2110 ft 188 kts 24°
2026-05-07 00:26 37.77457 -87.15583 2123 ft 191 kts 61°
2026-05-07 00:26 37.78017 -87.14039 1908 ft 207 kts 71°
2026-05-07 00:27 37.78443 -87.12240 1717 ft 204 kts 75°
2026-05-07 00:27 37.78772 -87.10606 2092 ft 183 kts 76°
2026-05-07 00:27 37.79116 -87.09071 2246 ft 186 kts 71°
2026-05-07 00:27 37.79611 -87.07505 2189 ft 198 kts 69°
2026-05-07 00:28 37.80097 -87.05836 2256 ft 201 kts 69°
2026-05-07 00:28 37.80631 -87.04273 2818 ft 190 kts 63°
2026-05-07 00:28 37.81311 -87.02871 3446 ft 186 kts 56°
2026-05-07 00:28 37.82001 -87.01592 4044 ft 176 kts 55°
2026-05-07 00:29 37.82766 -87.00311 4198 ft 191 kts 54°
2026-05-07 00:29 37.83378 -86.98773 4407 ft 198 kts 67°
2026-05-07 00:30 37.84727 -86.93961 5428 ft 201 kts 70°
2026-05-07 00:30 37.85209 -86.92364 5921 ft 192 kts 68°
2026-05-07 00:30 37.85742 -86.90813 6222 ft 195 kts 66°
2026-05-07 00:30 37.86286 -86.89201 6446 ft 201 kts 68°
2026-05-07 00:31 37.86809 -86.87560 6779 ft 199 kts 68°
2026-05-07 00:31 37.87359 -86.85951 7116 ft 198 kts 65°
2026-05-07 00:31 37.87995 -86.84389 7349 ft 202 kts 60°
2026-05-07 00:31 37.88677 -86.82827 7586 ft 205 kts 63°
2026-05-07 00:32 37.89359 -86.81162 7659 ft 216 kts 62°
2026-05-07 00:32 37.90035 -86.79413 7776 ft 221 kts 67°
2026-05-07 00:32 37.90586 -86.77595 8001 ft 223 kts 70°
2026-05-07 00:32 37.91103 -86.75748 8194 ft 225 kts 71°
2026-05-07 00:33 37.91604 -86.73803 7699 ft 239 kts 74°
2026-05-07 00:33 37.91964 -86.71722 7037 ft 240 kts 81°
2026-05-07 00:33 37.92103 -86.69735 7027 ft 216 kts 89°
2026-05-07 00:33 37.92047 -86.67933 7105 ft 190 kts 93°
2026-05-07 00:34 37.91929 -86.66344 7055 ft 175 kts 100°
2026-05-07 00:34 37.91522 -86.64890 6650 ft 182 kts 122°
2026-05-07 00:34 37.90774 -86.63607 6442 ft 173 kts 128°
2026-05-07 00:34 37.90007 -86.62532 6417 ft 157 kts 136°
2026-05-07 00:35 37.89178 -86.61670 6217 ft 154 kts 138°
2026-05-07 00:35 37.88436 -86.60715 6066 ft 143 kts 123°
2026-05-07 00:35 37.87970 -86.59659 5846 ft 141 kts 119°
2026-05-07 00:35 37.87550 -86.58408 5645 ft 167 kts 98°
2026-05-07 00:36 37.87873 -86.57078 6058 ft 164 kts 38°
2026-05-07 00:36 37.88892 -86.56461 6559 ft 158 kts 22°
2026-05-07 00:36 37.89898 -86.55748 7143 ft 170 kts 37°
2026-05-07 00:36 37.90818 -86.54672 7486 ft 196 kts 47°
2026-05-07 00:37 37.91671 -86.53251 7507 ft 207 kts 59°
2026-05-07 00:37 37.92305 -86.51589 7507 ft 211 kts 65°
2026-05-07 00:37 37.92912 -86.49911 7505 ft 215 kts 65°
2026-05-07 00:37 37.93534 -86.48194 7504 ft 218 kts 65°
2026-05-07 00:38 37.94173 -86.46436 7503 ft 221 kts 65°
2026-05-07 00:38 37.94830 -86.44625 7512 ft 236 kts 65°
2026-05-07 00:38 37.95547 -86.42645 7521 ft 251 kts 65°
2026-05-07 00:38 37.96291 -86.40590 7517 ft 263 kts 65°
2026-05-07 00:39 37.97072 -86.38429 7513 ft 271 kts 65°
2026-05-07 00:39 37.97857 -86.36255 7508 ft 277 kts 65°
2026-05-07 00:39 37.98673 -86.33994 7507 ft 281 kts 66°
2026-05-07 00:39 37.99496 -86.31713 7505 ft 284 kts 66°
2026-05-07 00:40 38.00325 -86.29412 7504 ft 286 kts 66°
2026-05-07 00:40 38.01147 -86.27130 7509 ft 288 kts 66°
2026-05-07 00:40 38.01985 -86.24804 7539 ft 288 kts 66°
2026-05-07 00:40 38.02816 -86.22493 7562 ft 288 kts 66°
2026-05-07 00:41 38.03661 -86.20144 7575 ft 289 kts 66°
2026-05-07 00:41 38.04495 -86.17819 7592 ft 289 kts 66°
2026-05-07 00:41 38.04966 -86.16506 7601 ft 289 kts 66°
2026-05-07 00:41 38.05808 -86.14159 7614 ft 289 kts 66°
2026-05-07 00:42 38.06632 -86.11861 7625 ft 290 kts 66°
2026-05-07 00:42 38.07478 -86.09499 7636 ft 290 kts 66°
2026-05-07 00:42 38.08307 -86.07179 7646 ft 290 kts 66°
2026-05-07 00:42 38.09138 -86.04854 7654 ft 290 kts 66°
2026-05-07 00:43 38.09833 -86.02909 7661 ft 290 kts 66°
2026-05-07 00:43 38.10619 -86.00706 7668 ft 291 kts 66°
2026-05-07 00:43 38.11252 -85.98931 7673 ft 291 kts 66°
2026-05-07 00:43 38.12248 -85.96139 7680 ft 291 kts 66°
2026-05-07 00:44 38.13154 -85.93657 7574 ft 276 kts 65°
2026-05-07 00:44 38.13820 -85.91769 7492 ft 258 kts 66°
2026-05-07 00:44 38.14565 -85.89658 7477 ft 239 kts 66°
2026-05-07 00:44 38.15221 -85.87801 7485 ft 224 kts 66°
2026-05-07 00:45 38.15844 -85.86042 7487 ft 211 kts 66°
2026-05-07 00:45 38.16431 -85.84382 7487 ft 200 kts 66°
2026-05-07 00:45 38.16963 -85.82879 7488 ft 191 kts 66°
2026-05-07 00:45 38.17502 -85.81358 7467 ft 184 kts 65°
2026-05-07 00:46 38.18007 -85.79871 7295 ft 180 kts 69°
2026-05-07 00:46 38.18297 -85.78307 6809 ft 190 kts 85°
2026-05-07 00:46 38.18304 -85.76640 6577 ft 183 kts 94°
2026-05-07 00:46 38.18259 -85.74956 5893 ft 202 kts 84°
2026-05-07 00:47 38.18621 -85.73208 5484 ft 201 kts 70°
2026-05-07 00:47 38.19142 -85.71590 5038 ft 206 kts 67°
2026-05-07 00:47 38.19789 -85.69827 4064 ft 227 kts 63°
2026-05-07 00:47 38.20575 -85.68114 3346 ft 222 kts 58°
2026-05-07 00:48 38.21391 -85.66493 2537 ft 212 kts 56°
2026-05-07 00:48 38.22117 -85.65110 2358 ft 183 kts 56°
2026-05-07 00:48 38.22792 -85.63747 1972 ft 172 kts 59°
2026-05-07 00:48 38.23371 -85.62584 1787 ft 142 kts 41°
2026-05-07 00:49 38.24264 -85.62427 1601 ft 147 kts 321°
2026-05-07 00:49 38.24331 -85.63496 1242 ft 130 kts 222°
2026-05-07 00:49 38.23737 -85.64315 934 ft 123 kts 231°
2026-05-07 00:49 38.23315 -85.65269 661 ft 119 kts 234°
2026-05-07 00:50 38.22931 -85.66106 538 ft 99 kts 240°
2026-05-07 00:50 38.22674 -85.66637 540 ft 33 kts 249°
2026-05-07 00:50 38.22607 -85.66731 540 ft 0 kts 184°
2026-05-07 00:50 38.22539 -85.66740 541 ft 18 kts 175°
2026-05-07 00:51 38.22514 -85.66698 540 ft 7 kts 343°
2026-05-07 00:51 38.22516 -85.66698 540 ft 0 kts 343°